Location: ????????
(60.5616°N, 46.8254°E)
Time: 09:26:32
(UTC+00:00)

Cosmos 1110 Rocket - Pass Details

Date: 18 February 2020
Orbit: 752 x 782 km, 74.0° (Epoch: 29 March)

Event Time Altitude Azimuth Distance (km) Brightness Sun altitude
Rises 14:34:01 0° 205° (SSW) 3,236 7.8 -6.2°
Reaches altitude 10° 14:36:22 10° 204° (SSW) 2,317 7.0 -6.5°
Maximum altitude 14:41:38 77° 120° (ESE) 804 4.0 -7.1°
Drops below altitude 10° 14:46:58 10° 35° (NE) 2,347 6.1 -7.8°
Sets 14:49:22 0° 34° (NE) 3,281 6.9 -8.0°
